Wind_Speed
16 16 17 17 17 18 18 18 18 18 18 19 19 20 20 20 19 18 18 17 16 14 14 13 13 12 11 10 9 9 7 5 1 2 2 2 3 8 10 11 12 11 9 8 5 4 3 2 2 3 4 5 7 8 9 9 9 9 9 9 11 12 11 10 11 13 14 14 11 8 7 8 9 10 13 16 17 17 18 18 18 21 21 22 23 24 25 23
17 17 17 17 18 18 18 18 18 18 18 19 19 19 20 20 20 20 19 18 17 16 15 14 14 12 11 10 9 8 7 3 2 4 4 3 5 8 9 11 12 10 8 7 6 5 4 3 3 3 4 5 6 7 9 9 9 9 11 11 11 12 12 12 13 14 14 15 14 10 8 10 10 12 14 16 18 20 21 20 21 23 23 25 28 27 26 23
17 18 18 18 18 18 18 18 19 18 18 19 19 19 19 20 20 21 20 19 18 17 16 15 14 13 11 10 9 7 6 1 6 6 5 5 7 8 9 11 12 11 9 9 8 7 5 4 4 4 3 5 6 8 10 10 10 10 12 12 11 12 13 13 16 17 15 14 15 12 8 9 12 15 16 17 18 21 23 22 22 25 26 26 28 28 27 23
17 18 18 18 19 19 19 19 19 19 19 19 19 19 19 19 20 21 21 20 19 18 17 16 15 14 11 10 8 7 5 4 9 7 7 7 7 9 9 11 13 12 11 10 9 8 6 5 5 5 4 5 7 9 11 12 12 13 12 11 11 12 15 15 18 18 14 12 14 13 9 9 13 16 18 18 20 21 23 22 21 25 27 27 28 29 28 25
16 17 18 18 18 18 19 19 19 19 19 19 19 19 19 19 20 20 20 20 20 19 18 17 16 14 12 10 8 6 5 4 9 8 8 9 9 10 10 12 13 12 10 9 9 9 7 6 7 5 4 5 7 10 13 13 14 14 12 11 12 15 17 16 17 18 15 12 13 14 10 9 13 17 17 19 20 18 19 19 20 24 27 28 29 29 29 27
15 16 16 17 18 18 18 18 18 19 19 19 19 19 19 19 20 20 20 20 20 20 19 18 17 15 13 10 8 6 5 4 7 9 8 10 11 10 11 13 13 12 10 9 9 9 8 8 8 4 2 3 7 11 13 14 14 14 13 14 16 17 17 16 16 17 15 13 16 16 12 10 13 15 17 19 18 16 16 17 21 25 27 28 29 29 29 28
15 15 16 16 17 17 18 18 18 18 18 19 19 19 19 19 20 20 20 19 19 20 19 18 17 16 13 10 9 6 5 5 7 8 7 10 12 11 12 13 13 12 10 9 9 9 8 7 6 3 1 4 8 9 11 14 15 15 16 17 18 18 17 16 15 15 15 14 17 17 12 11 12 13 16 18 17 17 18 18 23 27 28 29 31 30 29 28
16 16 16 16 17 17 18 18 18 17 17 18 18 19 19 19 20 20 20 19 19 19 19 19 17 16 14 11 9 6 8 10 9 8 7 10 12 12 13 13 12 10 8 8 8 9 9 5 3 1 2 5 8 9 12 15 14 15 19 19 18 16 16 16 15 16 15 15 18 16 11 9 11 13 16 18 19 19 20 21 26 30 31 32 32 31 29 29
17 17 17 17 17 18 18 18 18 18 17 17 18 18 19 20 20 20 20 19 19 18 18 19 18 16 14 11 9 8 10 13 12 8 6 9 12 12 13 13 12 9 7 9 9 9 7 3 2 0 4 5 8 10 13 14 14 16 20 19 16 15 15 16 16 18 17 16 16 14 10 8 11 14 17 20 22 21 23 27 30 31 32 34 33 32 31 29
17 18 18 19 19 19 18 18 18 18 17 17 17 18 19 20 20 20 19 19 19 18 18 19 18 17 15 12 10 10 11 13 15 12 8 10 12 12 13 13 12 10 8 8 8 6 4 1 2 1 4 5 8 12 13 13 15 17 19 18 15 14 16 15 18 21 18 15 12 11 9 7 10 14 17 21 24 23 26 32 31 30 32 33 34 32 31 29
18 18 19 20 21 20 19 18 18 18 17 17 17 17 18 19 20 20 20 19 19 18 18 18 18 16 15 13 10 10 11 12 16 15 11 12 13 12 12 13 12 11 9 7 7 4 3 2 2 1 5 6 9 13 13 14 16 17 19 17 14 15 16 15 18 20 16 13 11 9 7 5 9 13 17 21 25 25 29 33 31 28 30 33 34 33 32 28
18 19 20 21 21 21 19 18 17 17 17 17 16 16 17 18 19 20 20 19 18 18 17 18 18 17 16 13 9 11 14 14 15 15 13 13 13 13 12 13 12 11 9 6 5 3 3 4 2 3 7 8 11 13 13 16 18 19 18 15 16 17 17 16 17 18 14 12 11 8 5 2 7 12 17 22 24 27 31 33 31 29 31 33 33 33 33 29
18 19 20 21 21 20 19 18 17 16 16 17 16 16 16 17 19 19 20 19 19 18 17 17 17 17 16 12 10 13 16 15 15 16 15 13 13 13 12 12 12 12 10 7 5 4 3 3 2 7 10 12 14 14 15 18 20 19 17 14 17 20 19 16 16 16 13 12 13 9 5 4 7 12 16 20 24 28 31 31 31 31 32 32 30 31 32 29
18 19 21 21 20 19 18 17 16 15 15 16 15 15 15 17 18 18 19 19 19 18 17 17 16 18 15 11 12 14 16 17 13 16 16 13 12 12 12 11 12 13 12 11 9 7 4 1 4 8 12 15 16 16 17 19 20 18 14 13 18 21 19 16 15 15 12 14 15 10 7 6 8 13 16 20 26 30 29 29 32 33 33 31 30 30 30 29
18 20 20 19 18 17 17 17 16 15 14 14 14 15 15 16 16 17 18 18 19 18 17 16 15 17 14 11 13 14 17 18 10 12 15 14 12 12 11 11 13 14 13 13 12 9 6 3 4 10 14 17 18 17 18 18 18 15 12 14 17 20 18 15 15 14 13 16 16 12 7 6 9 14 17 22 28 30 30 31 32 31 30 30 30 31 29 25
19 20 19 18 17 16 16 16 15 14 13 13 13 14 14 15 16 16 17 18 18 18 17 15 14 14 12 11 14 14 14 14 9 10 14 13 12 11 11 13 15 15 13 12 12 10 8 8 9 13 16 18 17 16 18 18 15 12 13 16 18 18 16 15 14 13 15 16 17 12 7 5 6 14 17 24 29 29 31 33 30 26 25 28 30 31 27 23
19 20 18 17 16 16 16 15 14 13 12 11 11 12 12 13 15 16 16 17 17 17 16 13 12 12 10 8 9 10 8 9 9 11 12 11 11 11 12 15 16 15 13 12 12 10 8 10 10 11 15 16 15 15 17 17 13 11 13 16 17 17 15 14 13 12 15 15 15 12 7 5 7 16 17 25 29 29 31 31 28 25 23 26 29 28 25 23
19 19 17 16 16 16 16 15 14 12 11 9 9 10 11 12 14 15 15 16 17 17 15 13 11 7 8 7 3 3 5 8 9 10 13 12 11 12 13 14 16 15 15 15 15 12 9 10 10 11 16 17 16 16 17 12 10 11 13 14 16 17 13 13 12 10 13 13 14 12 10 6 8 15 17 24 27 29 31 30 27 26 23 24 26 24 24 25
19 19 17 16 17 17 17 16 13 11 9 8 8 8 10 12 14 14 16 17 17 15 11 10 8 8 10 11 10 6 7 9 9 11 14 12 13 16 17 15 15 15 16 17 16 13 9 9 10 13 16 16 15 14 13 8 9 11 13 14 17 16 11 10 11 8 10 11 11 10 13 11 4 15 19 23 26 30 31 28 27 28 26 25 25 24 25 27
19 18 17 16 17 18 18 15 11 10 8 7 7 8 9 11 14 15 16 17 15 14 12 9 11 15 13 13 14 12 12 11 9 12 15 13 14 18 19 17 16 16 17 15 13 10 8 11 14 14 10 8 10 11 11 10 11 13 12 14 17 13 8 7 8 7 6 8 8 6 10 12 3 16 24 24 26 31 30 26 28 29 26 24 26 27 27 27
19 18 17 16 17 18 16 13 10 8 6 6 6 7 9 11 13 13 12 13 13 16 15 10 12 17 12 11 14 15 16 12 8 12 16 16 17 20 20 18 17 18 16 12 10 7 8 14 14 9 4 3 7 10 14 16 16 15 13 14 16 9 5 3 4 6 6 6 8 3 3 8 4 11 25 30 29 29 28 27 29 28 25 25 29 29 27 25
18 17 16 16 17 17 15 12 10 8 6 5 6 7 8 10 10 9 7 8 11 14 15 10 11 17 14 14 18 18 18 14 10 13 16 18 20 21 20 18 17 16 12 10 11 10 15 15 5 3 6 8 8 9 13 17 19 17 15 15 16 8 4 3 3 5 5 5 7 3 2 2 5 9 19 27 29 30 29 28 28 26 25 29 31 29 27 24
18 17 16 16 16 15 13 12 10 8 5 5 6 6 7 8 9 8 4 3 6 10 12 9 10 18 16 18 19 15 16 14 9 13 18 20 21 19 19 18 16 14 11 11 12 13 19 11 3 3 12 14 15 14 16 19 21 21 17 16 14 9 8 7 4 3 3 3 4 1 4 3 7 11 15 19 24 30 33 29 27 26 27 32 32 28 26 25
17 17 16 15 16 14 13 11 10 8 5 5 6 7 8 9 8 6 5 2 2 5 7 8 15 20 17 18 17 12 13 13 9 12 20 22 21 20 19 15 14 15 12 12 12 14 18 10 4 10 12 16 18 16 17 19 20 19 15 13 12 10 11 11 6 2 2 3 1 5 6 4 7 11 16 20 19 25 31 28 26 29 32 33 31 27 24 25
17 17 16 15 15 13 12 11 9 7 4 5 7 8 9 9 7 6 5 3 2 2 6 13 21 21 16 16 15 11 10 14 12 11 17 21 21 21 19 14 15 16 13 12 14 18 17 10 10 16 16 20 20 16 16 15 15 16 14 10 9 10 11 12 8 3 5 6 3 5 4 4 9 13 18 21 18 22 31 29 26 30 33 33 30 26 24 26
17 16 15 14 14 12 11 10 6 5 3 2 6 9 10 9 8 6 4 2 2 4 7 14 20 21 17 12 12 13 11 14 15 11 12 16 19 21 19 17 16 15 13 12 14 20 17 9 11 15 15 18 19 19 19 15 15 16 12 9 6 7 9 11 9 6 7 5 4 4 3 2 10 15 18 20 18 19 25 27 28 29 30 31 30 27 27 29
17 16 15 13 12 11 9 8 5 4 4 1 5 9 10 10 9 8 5 1 1 6 7 12 18 20 18 12 11 15 11 11 16 15 12 12 17 21 19 18 17 14 12 11 14 18 14 11 13 15 17 18 18 19 19 17 19 16 10 8 7 5 6 9 9 7 8 5 3 4 6 4 8 14 19 22 21 18 20 26 30 29 28 30 30 28 28 30
16 15 14 13 11 10 8 7 6 4 3 5 6 9 10 10 11 9 5 2 2 8 6 9 14 15 18 16 13 13 7 8 16 18 14 12 15 20 22 20 17 14 13 14 20 18 13 15 14 12 16 18 17 14 11 8 11 13 8 6 7 4 4 8 8 8 9 6 4 7 9 5 6 12 19 23 24 22 21 27 31 30 29 32 31 30 30 30
16 14 13 12 10 8 6 5 4 1 6 9 10 12 12 11 10 7 3 2 5 8 6 8 11 12 17 18 16 13 9 8 11 14 15 14 16 19 21 21 18 16 15 17 22 20 18 18 15 14 16 16 14 10 9 7 5 9 8 8 7 4 3 5 8 11 9 6 7 8 12 9 4 10 23 27 26 26 24 26 31 31 31 34 33 31 31 30
15 13 12 11 9 7 5 4 3 4 8 10 12 13 13 12 8 3 2 3 7 8 5 8 10 10 16 18 17 15 13 9 7 10 15 15 16 17 18 19 19 18 19 21 24 24 23 20 19 19 17 16 13 9 9 11 6 6 7 8 4 3 4 6 9 9 5 5 7 7 11 13 4 7 23 24 15 17 23 28 31 32 32 34 35 32 32 31
14 13 11 9 7 6 4 4 5 7 9 12 13 14 14 11 5 1 2 4 7 7 6 8 9 11 14 16 16 15 15 13 9 12 18 18 18 18 18 20 20 20 22 23 24 24 25 23 20 19 16 16 17 13 9 11 12 6 4 7 6 7 6 6 6 6 2 4 5 6 7 15 10 8 14 14 9 9 20 28 31 32 33 35 36 34 32 30
13 13 11 8 6 6 5 5 7 8 11 12 12 13 12 7 1 2 2 4 4 5 6 9 10 13 14 12 12 15 16 14 11 14 20 19 18 19 18 21 22 19 19 22 23 22 24 24 18 16 16 16 17 15 10 11 16 13 7 7 6 5 3 3 2 3 4 5 3 4 4 12 14 14 12 12 11 11 18 24 29 30 32 35 36 34 32 30
12 12 10 7 6 6 6 6 7 9 10 10 11 12 7 2 4 8 3 1 2 1 5 6 7 11 15 13 11 12 12 11 13 18 21 18 15 15 15 18 22 20 16 17 19 19 20 22 20 17 16 16 16 16 13 11 15 19 15 9 5 4 2 2 2 1 4 5 2 2 5 7 13 16 14 15 12 9 17 22 25 28 30 31 33 33 32 30
10 10 9 7 5 5 6 6 7 8 9 9 10 8 1 1 8 15 11 9 8 1 6 5 7 11 14 12 9 9 8 10 16 19 21 20 16 16 15 16 19 22 17 14 15 15 15 16 16 17 17 17 18 16 13 11 13 18 15 11 11 9 5 3 3 2 2 1 2 4 5 6 13 15 16 16 10 3 17 23 24 26 27 27 30 33 32 31
8 10 10 8 5 3 4 5 6 7 10 11 9 4 3 4 12 18 17 17 12 2 8 6 9 12 12 10 10 10 7 11 17 16 17 20 18 16 17 17 17 21 21 17 14 14 18 18 14 15 14 17 18 14 10 12 14 13 12 12 13 11 8 3 2 2 2 2 2 4 2 11 13 11 13 11 4 3 15 24 27 28 27 28 31 33 32 30
7 10 11 10 6 2 3 5 6 8 11 10 5 3 6 8 14 17 16 17 14 3 8 11 10 11 13 10 11 14 11 11 16 16 18 21 20 17 16 16 16 18 23 23 17 13 16 20 15 12 13 15 19 19 12 12 13 10 10 12 8 5 5 3 3 1 1 2 1 1 7 16 13 7 7 4 2 6 16 24 27 28 28 30 33 33 31 30
6 9 9 9 7 3 2 5 5 9 12 8 1 7 10 13 14 15 17 17 12 6 3 10 9 10 14 12 12 15 15 14 14 17 20 20 20 20 19 16 15 16 19 23 22 17 16 20 18 16 15 10 13 20 19 13 12 10 7 8 6 5 5 3 3 1 3 1 2 6 10 15 15 12 11 4 4 10 17 21 24 28 28 30 33 33 30 29
4 6 8 7 6 4 2 4 6 11 12 5 4 9 12 13 14 16 20 18 11 8 8 4 2 6 8 9 11 13 17 18 17 19 21 20 18 19 19 18 16 16 15 17 21 20 18 20 17 14 15 9 8 15 24 19 14 9 4 7 6 4 5 4 2 1 2 1 2 6 9 12 14 14 14 6 4 8 13 17 22 26 29 30 31 32 30 29
4 5 5 5 5 4 2 3 6 11 11 4 6 11 13 13 12 15 17 15 12 9 10 9 3 3 3 5 9 12 18 20 19 20 19 19 19 17 17 18 18 16 15 16 20 18 16 18 15 11 10 6 6 14 27 25 20 12 7 10 9 4 5 5 5 4 3 2 1 3 5 8 13 15 12 5 7 9 11 15 18 23 29 31 31 32 32 30
6 6 3 2 5 6 3 2 4 9 11 6 0 8 14 14 12 13 13 11 10 9 9 8 4 3 5 10 14 11 21 24 21 21 18 16 17 16 14 17 19 18 15 16 19 19 18 18 16 12 8 8 8 12 21 21 23 20 14 14 12 7 8 6 5 6 5 3 3 1 2 5 12 15 11 2 7 11 12 13 16 18 22 27 29 31 32 31
5 3 2 3 7 8 5 3 2 7 9 7 6 8 14 17 14 13 13 10 6 7 7 4 5 10 11 13 17 10 14 23 21 20 20 18 17 16 11 11 17 19 17 19 21 21 21 20 19 17 13 15 12 6 7 10 19 21 15 15 15 13 13 8 4 4 6 6 6 5 2 2 9 13 11 5 3 10 14 15 17 18 19 21 24 28 32 32
3 5 4 7 10 9 7 5 2 4 4 3 6 8 13 16 13 10 12 9 3 6 7 4 6 12 12 13 14 11 6 17 23 21 20 18 17 16 10 7 14 18 20 21 17 14 17 18 18 19 17 16 14 8 4 7 16 19 16 15 16 17 17 11 6 7 9 10 9 6 2 1 7 11 10 8 3 7 13 15 16 18 20 20 20 24 31 33
2 5 7 9 10 10 8 6 2 1 2 4 5 6 9 13 12 11 10 6 6 12 10 7 10 11 10 13 12 11 10 6 16 15 18 19 16 14 10 7 12 17 20 20 15 13 16 18 17 17 17 17 17 13 9 7 11 15 15 17 19 20 18 10 8 11 14 15 12 6 2 2 3 9 10 8 4 3 10 13 14 17 20 21 20 21 26 32
5 5 5 6 7 7 8 5 3 4 5 6 6 5 4 7 10 11 8 4 8 15 13 10 11 9 8 12 12 10 11 5 3 7 10 13 13 13 12 10 13 17 19 18 17 17 18 19 18 12 10 12 12 9 8 6 4 3 6 15 21 18 14 10 10 13 15 17 15 8 5 4 2 5 8 5 1 4 8 11 14 17 18 19 20 20 21 27
6 5 4 4 3 5 7 4 4 6 6 9 9 5 3 4 5 7 7 5 6 12 13 11 9 8 9 10 10 6 6 9 12 12 8 5 7 10 9 11 13 16 17 14 13 16 17 17 18 12 5 5 6 4 5 6 4 6 8 8 19 20 15 12 13 13 14 18 17 13 11 8 5 4 1 4 4 5 10 13 12 14 18 18 18 18 18 23
8 8 7 6 4 4 5 5 1 4 6 10 11 8 5 5 2 4 6 7 8 9 11 10 8 10 10 6 8 6 5 11 14 11 10 9 7 4 8 17 14 13 15 12 10 13 16 16 16 15 12 11 9 9 11 14 12 11 13 6 14 21 13 8 12 15 15 19 20 19 16 12 8 8 8 9 5 1 8 13 9 9 14 17 16 16 17 22
9 9 8 6 5 5 7 6 2 3 4 8 10 9 8 8 6 5 7 8 10 10 10 8 7 10 10 6 8 10 11 11 9 11 13 9 6 2 13 16 9 8 13 14 13 11 11 11 11 11 12 10 9 11 11 12 12 11 14 10 6 16 13 12 15 16 15 17 17 18 19 16 14 15 13 10 5 3 4 10 7 6 11 14 15 14 16 23
10 9 7 5 5 6 7 5 2 2 2 4 7 8 8 9 9 7 7 10 10 10 8 7 7 9 10 9 10 11 10 9 7 11 11 9 8 5 13 11 10 10 10 11 11 10 11 9 7 8 9 9 9 10 10 10 12 12 13 14 9 8 15 22 24 18 16 17 13 16 23 22 19 20 15 12 9 3 3 7 7 7 11 14 15 16 17 23
13 12 9 7 6 7 7 5 4 4 2 3 4 5 8 11 9 6 9 12 11 8 6 7 8 9 9 8 7 9 8 9 10 11 7 6 10 7 9 6 7 10 7 7 7 6 10 10 8 9 10 9 7 8 7 6 10 12 14 16 15 12 10 19 26 21 17 16 12 15 23 24 22 18 10 8 11 6 2 7 10 9 12 15 17 19 19 22
14 14 13 11 9 8 8 7 7 8 5 3 4 5 7 10 8 8 10 11 10 9 7 9 9 8 8 8 6 5 5 7 7 9 7 3 6 6 8 7 6 9 5 3 5 3 7 9 8 10 13 12 7 6 3 3 8 11 15 16 15 15 13 13 23 26 22 18 14 17 20 21 21 17 9 11 14 8 2 7 13 13 13 13 17 21 21 21
15 16 16 16 13 11 11 11 11 12 10 7 7 6 7 8 9 11 11 7 6 9 10 10 10 6 6 8 8 6 6 6 4 5 5 2 3 4 5 5 6 9 9 4 2 4 6 7 5 7 12 14 9 5 3 6 10 11 13 17 16 17 16 14 15 24 30 23 16 20 23 23 21 17 16 17 14 9 5 6 11 14 14 14 16 20 23 22
14 16 17 18 16 15 15 15 15 16 16 13 11 8 8 8 8 9 12 10 8 10 11 9 9 4 3 6 8 9 11 11 10 6 3 2 2 2 1 1 2 6 9 8 4 2 5 6 6 5 9 14 11 6 6 10 11 10 14 16 15 15 14 15 14 16 28 27 21 23 22 19 21 21 22 22 17 13 12 9 9 11 13 15 17 18 22 24
Wind_Direction
294 293 292 291 290 289 288 286 282 279 276 272 270 267 266 266 266 267 268 270 271 274 278 281 281 280 282 283 280 284 296 300 260 138 182 203 157 172 173 165 168 172 169 170 170 155 152 180 145 77 55 58 60 51 39 31 20 4 357 3 5 359 359 354 343 330 323 323 320 303 263 240 234 236 225 216 210 203 204 200 196 194 189 190 188 185 188 187
293 292 291 289 289 288 288 287 284 282 279 276 272 268 266 264 263 264 264 266 267 269 273 277 280 279 279 281 281 281 293 318 125 152 182 181 161 174 171 163 168 167 162 165 164 156 157 179 148 95 59 63 59 45 34 26 19 4 350 355 3 351 350 354 346 334 326 324 318 306 267 240 234 231 224 221 213 204 202 198 195 192 189 189 183 180 187 188
295 294 291 290 288 287 286 284 283 283 280 278 275 271 268 265 263 261 261 262 263 266 268 272 276 277 276 277 280 277 288 118 151 167 157 166 167 169 169 164 167 165 165 173 172 166 169 173 144 117 82 67 48 35 28 18 6 356 349 351 355 342 343 349 343 338 328 319 312 308 284 242 227 226 227 224 215 210 207 200 196 191 190 189 182 182 189 191
300 298 294 292 290 288 286 283 282 281 279 277 275 273 270 267 264 261 259 259 260 262 264 267 271 274 274 273 275 272 273 172 172 176 141 152 167 167 170 164 168 172 178 184 177 170 171 170 157 144 102 56 30 25 17 6 355 355 356 353 353 343 345 345 339 340 332 314 308 306 292 249 232 231 229 223 217 215 211 205 201 191 189 190 188 191 192 190
306 302 299 296 293 291 288 285 281 278 277 276 275 274 271 269 265 262 260 257 257 258 259 263 266 271 272 270 270 264 259 194 190 196 159 159 166 170 173 166 171 179 185 187 182 178 173 173 176 163 98 41 14 9 2 355 350 359 6 355 354 349 346 343 333 336 331 309 301 303 292 256 240 236 230 223 218 218 212 204 200 192 189 191 191 194 191 189
313 309 305 301 297 294 291 288 283 279 276 275 274 273 271 269 266 263 260 257 255 254 255 258 261 265 268 266 263 254 240 189 187 201 191 177 173 172 175 172 176 184 190 186 185 187 182 187 193 182 95 30 6 2 355 351 349 359 6 356 357 354 348 342 327 328 327 307 299 306 297 265 250 243 231 221 218 218 210 198 194 190 190 192 192 193 191 190
317 315 312 307 302 297 293 290 286 281 277 274 273 271 270 268 266 263 260 258 254 251 251 253 256 259 263 261 255 247 216 177 168 188 199 187 177 174 176 177 183 189 191 187 187 195 198 196 190 184 53 4 357 2 355 349 347 352 358 357 0 358 351 341 328 326 324 306 300 307 300 272 255 243 227 216 212 206 196 190 189 188 189 189 190 192 192 192
316 316 316 314 310 303 296 291 287 284 280 274 271 269 268 266 264 262 260 258 255 251 248 248 251 253 257 256 247 235 205 187 165 164 184 187 180 175 175 179 188 192 187 187 192 205 217 204 170 209 350 354 353 360 354 348 349 351 350 352 358 357 351 344 337 331 322 310 304 305 297 268 250 235 219 207 201 194 184 182 185 187 189 187 187 191 190 192
313 314 315 315 313 308 300 292 286 283 280 276 271 267 266 264 262 260 258 257 256 252 248 245 246 247 251 252 240 224 212 202 184 176 188 188 182 174 174 180 189 192 186 192 197 206 224 211 140 284 335 351 0 359 353 350 353 354 348 349 354 352 350 346 343 339 327 316 310 305 296 267 246 228 210 196 189 186 180 179 183 185 189 187 185 188 188 192
311 312 313 314 313 310 304 294 286 280 278 276 272 267 264 262 261 259 256 254 255 253 249 244 242 242 245 245 238 225 218 215 203 198 199 194 186 175 174 181 189 190 188 201 204 207 239 247 122 27 331 340 357 353 353 352 351 352 348 353 358 349 348 344 342 344 335 326 321 311 299 269 240 221 206 192 184 183 180 178 180 185 188 187 184 184 186 191
311 311 312 313 312 310 305 297 288 280 275 272 271 268 263 261 259 257 254 251 252 252 250 245 240 238 240 239 237 227 219 217 212 204 199 196 187 174 178 185 187 187 185 201 205 205 255 239 168 326 317 323 338 342 348 347 347 347 342 353 4 352 350 346 343 346 343 341 339 326 309 261 225 210 202 194 184 181 181 178 180 184 187 186 183 183 184 187
312 312 312 312 312 310 306 299 291 282 274 270 269 267 262 259 257 256 253 249 248 250 250 246 241 234 235 234 223 223 223 216 208 203 197 192 185 178 183 187 186 185 180 194 198 187 256 238 167 1 332 326 332 337 342 341 342 343 336 346 0 355 353 349 347 350 352 354 349 341 332 265 212 200 198 195 184 181 182 178 179 184 186 186 183 184 185 185
314 313 313 314 313 311 306 301 294 285 276 269 266 266 262 257 255 254 252 249 246 247 248 246 242 234 231 227 213 219 232 228 206 196 192 186 187 186 188 190 188 184 174 178 173 156 223 231 63 8 339 330 333 331 334 335 336 337 333 341 351 353 354 349 350 353 354 353 346 337 321 280 212 196 196 196 185 182 184 178 178 182 186 187 184 187 188 183
317 317 318 317 316 313 308 303 296 289 279 270 266 264 260 254 252 252 251 249 245 246 247 245 241 235 227 218 215 215 229 239 214 191 192 190 193 193 193 195 191 185 177 172 160 162 189 86 13 331 317 322 325 323 326 326 328 332 335 343 346 349 354 355 355 353 350 345 341 329 306 279 222 199 193 194 183 180 183 178 177 179 181 184 184 186 186 180
321 322 322 321 321 319 314 306 299 292 282 272 267 262 258 252 248 249 249 246 245 245 246 246 242 238 226 214 222 215 222 239 224 189 197 199 199 199 199 200 190 185 184 175 173 200 220 191 256 276 293 307 309 313 316 315 322 331 334 341 344 347 357 5 360 354 354 347 341 334 310 283 228 202 189 185 179 179 180 173 172 174 173 178 180 177 178 177
326 326 327 325 327 327 321 313 305 296 285 275 268 261 256 249 244 245 246 244 244 244 246 247 245 240 226 214 225 226 229 242 230 197 200 198 197 198 198 196 186 184 185 176 185 216 224 199 221 256 277 288 291 301 303 301 319 337 333 333 338 345 358 9 3 2 7 358 353 347 316 301 219 190 184 181 177 176 174 168 164 166 171 176 174 170 173 174
330 330 329 329 332 332 326 318 311 301 289 278 269 261 253 246 240 240 242 241 241 243 245 246 244 239 225 213 227 233 236 242 222 193 193 193 193 194 188 184 183 184 178 171 186 201 199 198 213 239 255 267 277 284 284 292 316 336 332 326 331 340 352 5 3 5 13 12 12 10 346 316 192 174 177 180 175 169 169 167 159 156 169 177 174 170 171 169
332 331 331 332 333 332 328 322 315 306 294 277 266 259 249 240 235 235 237 237 236 239 243 242 241 231 207 188 172 204 211 225 215 183 187 190 183 180 173 177 184 182 175 176 191 196 196 202 208 232 244 250 260 260 261 290 325 321 322 320 326 335 341 358 1 7 19 24 29 27 12 337 206 172 167 176 170 165 166 167 159 153 161 170 173 171 163 161
334 332 332 333 333 332 331 329 323 313 300 274 258 249 240 233 230 229 229 229 229 232 237 236 208 147 145 145 126 132 168 196 200 178 185 185 178 173 165 175 185 184 186 187 197 207 219 216 212 235 241 236 241 244 253 306 331 304 305 310 323 332 333 352 1 16 30 30 38 44 28 10 191 155 156 174 167 160 163 166 163 160 162 168 175 172 162 160
336 335 334 334 332 334 334 333 329 320 303 269 249 240 233 228 226 226 228 229 226 223 223 216 173 144 132 129 134 146 152 170 183 174 180 177 182 180 169 177 182 188 197 196 203 208 217 230 233 243 245 231 235 240 261 297 304 295 299 304 321 330 322 347 4 24 40 29 38 54 31 24 106 154 160 175 171 162 164 169 168 165 166 172 175 170 165 163
338 337 336 333 333 336 335 334 332 324 304 266 242 233 227 224 225 229 237 239 232 227 224 214 175 160 147 135 149 152 149 163 166 165 176 172 182 187 178 179 184 192 200 197 198 190 222 243 242 249 270 272 262 261 271 276 277 288 294 301 319 320 298 324 340 11 29 18 20 16 11 29 52 156 167 174 174 169 169 173 170 168 166 166 170 168 165 165
340 340 337 335 336 338 336 333 332 322 299 258 233 227 225 224 226 225 240 250 242 234 228 222 183 167 159 150 157 155 151 164 168 165 171 172 183 190 185 183 190 197 196 194 196 203 238 244 209 214 269 278 281 276 271 270 270 276 281 299 314 297 238 225 275 352 14 359 3 345 234 85 100 147 168 173 176 175 174 176 171 168 168 165 169 171 169 171
341 341 339 338 339 339 336 334 333 321 294 249 225 217 212 218 223 217 225 271 252 233 229 224 170 160 160 157 164 169 161 169 189 174 169 176 182 188 190 189 196 202 194 201 203 212 231 230 97 281 273 275 274 270 266 266 264 264 273 299 312 282 239 233 252 345 352 337 355 222 187 152 147 161 174 177 184 182 175 177 174 170 172 170 170 173 178 181
342 343 342 342 343 341 339 339 340 330 294 238 215 198 189 202 214 209 211 243 267 238 224 188 158 155 157 159 167 177 170 181 212 186 172 177 177 182 192 193 201 207 200 207 216 232 237 233 281 278 276 277 276 273 265 259 256 258 272 297 310 289 258 250 266 341 267 275 283 184 180 189 177 173 181 183 196 195 179 176 176 171 172 174 173 176 189 192
343 345 345 346 345 342 343 344 348 350 318 240 210 185 179 188 190 184 193 224 269 222 189 173 163 159 158 162 164 162 174 195 210 198 183 182 179 180 186 188 201 211 210 207 222 247 248 234 260 271 275 275 271 263 253 250 255 263 277 301 317 296 257 244 267 282 223 250 250 185 183 211 185 173 182 192 204 200 185 180 179 173 172 177 179 178 186 197
345 347 349 348 347 345 347 348 352 23 30 254 207 178 173 174 165 158 169 215 236 181 177 174 171 172 172 166 156 159 191 208 199 203 200 187 185 184 183 188 197 208 209 202 221 244 243 231 259 273 279 276 267 257 252 253 260 267 285 301 292 277 246 239 271 270 225 259 293 214 212 227 191 178 178 190 200 197 192 191 185 178 175 180 183 178 180 196
348 350 351 351 351 348 350 355 353 14 50 136 193 170 164 160 143 132 140 194 205 166 168 173 178 188 188 180 165 165 187 200 185 196 206 190 186 187 189 195 198 202 201 208 230 236 238 256 267 269 275 274 264 262 261 255 253 264 299 308 264 253 246 252 276 265 236 268 317 219 211 234 218 196 181 183 191 195 201 201 192 184 181 182 185 181 179 191
352 353 353 355 356 352 356 10 358 354 98 129 157 159 155 148 131 123 124 39 126 147 151 169 177 188 191 197 197 175 159 174 184 194 197 193 193 192 197 199 200 204 199 215 233 234 242 259 268 277 281 272 257 259 269 254 256 272 295 302 281 307 301 271 262 236 232 258 269 219 205 231 247 204 186 186 195 199 201 202 198 191 186 185 187 186 181 187
355 356 355 358 360 359 10 31 22 54 138 138 149 153 151 148 133 118 96 65 127 137 131 156 170 179 185 196 205 188 160 160 187 198 194 198 203 202 207 203 200 212 212 220 236 244 243 241 257 283 288 279 260 253 258 246 287 304 286 268 285 323 306 259 233 226 232 250 267 241 208 213 255 199 189 193 206 210 202 200 202 197 190 188 189 189 186 188
357 360 360 360 1 7 26 54 82 142 147 143 149 149 147 150 142 109 42 90 139 142 140 159 170 179 182 191 196 186 177 173 185 199 195 201 206 207 215 210 207 220 226 230 239 248 248 245 256 270 278 279 267 261 265 248 256 317 290 254 232 155 185 202 213 227 243 254 275 283 225 215 246 209 199 204 220 221 203 196 200 200 195 193 194 192 189 190
359 4 6 3 4 17 37 76 113 139 145 145 148 146 145 150 150 106 53 95 149 166 172 165 172 191 195 197 191 176 180 187 189 199 196 195 200 206 212 212 215 225 232 238 241 244 252 254 255 255 260 265 259 260 274 255 240 248 271 236 171 143 175 187 213 220 228 268 285 324 244 210 221 248 232 243 275 241 209 196 197 200 197 197 198 195 192 190
3 8 11 10 16 35 56 92 117 136 145 147 149 144 145 157 170 355 71 124 177 190 177 169 177 196 202 204 194 177 183 192 189 200 198 190 196 206 210 210 213 222 233 240 240 244 249 248 245 246 248 249 251 255 261 254 239 228 232 223 162 119 171 208 249 218 230 275 297 318 233 204 242 285 298 290 275 230 211 198 195 198 196 196 197 196 193 191
7 10 14 19 32 54 75 103 126 140 143 144 148 141 142 167 9 359 5 175 287 222 168 181 185 193 196 196 190 179 190 195 177 187 197 195 204 216 217 214 213 218 229 236 241 248 251 247 243 244 237 222 227 243 247 242 229 223 232 244 210 128 107 237 260 249 268 297 346 255 212 220 276 308 331 320 302 232 204 194 190 192 193 194 195 195 195 193
15 19 22 21 31 64 86 118 133 139 144 143 141 132 110 336 24 14 15 16 358 180 173 174 157 172 190 195 192 185 200 196 175 181 196 200 209 220 222 221 217 218 225 235 241 242 249 252 236 224 221 211 213 228 237 230 224 227 238 262 258 231 215 235 216 198 254 317 69 170 189 280 299 319 330 321 324 221 196 191 186 187 191 194 194 194 196 195
31 35 35 23 18 58 93 124 134 140 148 144 133 106 9 18 19 13 16 18 16 159 188 169 139 160 185 190 189 189 195 188 178 184 200 205 215 223 225 228 222 216 218 227 237 236 246 250 217 205 227 231 228 231 229 224 226 234 242 253 258 240 227 227 175 189 198 149 118 171 230 325 321 319 315 300 308 156 186 190 190 190 191 192 193 194 197 197
53 46 38 29 21 30 108 120 140 154 154 149 135 24 14 21 13 12 15 12 13 47 185 178 154 168 186 186 187 191 198 192 182 190 203 213 229 235 232 236 232 221 215 219 225 224 239 244 228 231 255 251 246 242 227 216 219 224 232 230 226 202 194 153 139 172 118 139 71 3 330 350 6 1 330 300 190 155 173 185 192 194 194 193 194 195 197 199
83 59 43 37 31 18 108 128 159 165 162 163 80 16 19 21 21 26 19 5 1 19 155 182 187 197 197 201 199 196 209 212 197 201 207 212 230 239 237 238 239 230 219 219 225 223 239 253 246 241 250 263 268 249 231 214 202 194 194 200 182 170 190 170 155 113 61 108 3 1 345 2 20 11 3 23 161 165 170 181 188 193 196 197 197 198 199 199
136 85 47 41 41 32 107 148 176 175 172 171 41 27 24 30 38 34 19 1 347 359 22 53 174 200 203 224 219 201 207 212 205 209 214 216 227 239 238 235 235 234 224 222 229 231 244 257 252 237 244 282 310 246 227 216 205 199 178 185 188 187 195 182 162 130 80 185 325 352 349 9 19 9 5 356 220 179 172 180 187 191 195 199 200 200 201 200
164 131 60 43 53 52 104 163 186 185 182 161 52 36 24 30 39 31 16 356 337 347 15 31 51 186 215 279 272 235 217 213 208 209 214 219 228 240 243 236 231 227 223 222 228 232 235 248 259 241 231 298 330 222 216 212 210 215 212 210 226 229 187 157 135 147 145 158 176 337 345 21 26 17 12 330 247 212 192 190 192 192 195 200 202 201 203 203
122 125 92 69 70 59 73 144 187 195 196 203 60 19 9 8 18 29 24 357 333 340 357 8 2 318 310 325 325 279 227 220 216 214 218 221 229 243 248 240 232 222 215 219 228 233 231 240 256 237 223 318 327 206 207 210 204 205 212 215 216 195 167 142 126 153 154 151 157 193 330 30 26 19 25 10 239 229 220 211 205 200 198 203 205 205 205 205
84 64 40 70 66 53 51 76 167 205 209 230 272 322 338 343 2 33 33 9 346 347 342 330 352 354 341 330 337 324 232 223 220 220 224 226 233 246 248 236 230 219 208 215 226 231 231 237 252 254 269 310 311 223 217 233 212 209 220 222 212 196 177 152 128 175 174 169 160 155 209 349 12 11 22 34 252 227 227 230 224 216 209 206 208 209 208 207
27 33 61 68 59 54 54 66 105 209 224 281 307 314 326 334 346 9 6 354 359 1 342 300 332 347 343 333 336 347 291 228 219 222 231 235 245 255 260 246 227 211 202 212 224 230 231 236 252 266 280 299 296 267 269 275 239 226 230 233 221 208 196 178 171 187 168 154 149 142 165 27 15 7 15 22 350 220 217 230 234 229 223 218 215 213 211 210
59 76 80 60 56 61 56 50 52 297 323 352 329 317 330 331 328 336 343 336 332 339 332 320 334 334 337 346 344 356 0 235 216 231 244 246 255 262 262 248 223 205 198 207 217 219 223 229 244 266 278 283 282 264 247 254 243 231 232 237 227 212 208 205 190 178 160 154 156 153 165 142 17 352 360 9 344 219 200 216 233 236 231 225 222 219 214 212
114 109 85 55 53 54 44 35 29 18 14 3 337 310 319 322 322 327 321 291 316 326 316 313 335 336 332 344 349 4 20 18 308 310 271 253 267 274 260 234 213 203 200 208 215 212 215 225 235 254 284 289 285 267 247 236 220 247 254 232 222 206 188 170 160 163 168 173 173 174 182 168 186 301 337 7 261 212 184 195 218 227 231 230 224 221 215 211
150 166 143 110 93 52 50 57 27 12 12 2 342 314 287 286 309 326 307 292 325 327 312 302 320 330 317 329 348 11 39 17 1 355 336 327 330 302 255 207 197 200 201 209 219 217 219 227 232 234 234 256 271 275 298 313 314 344 340 236 207 198 189 173 161 166 181 186 188 198 197 170 163 222 231 123 158 191 176 178 196 213 225 232 227 222 218 208
192 201 181 148 132 107 111 123 29 332 344 356 346 333 318 284 279 31 359 336 344 340 318 298 302 318 313 330 354 349 350 356 2 5 357 8 22 339 202 185 189 198 198 195 196 209 223 231 238 245 243 248 271 284 305 324 315 306 328 324 187 191 203 194 178 185 191 189 199 213 203 179 172 180 162 151 163 243 189 188 205 214 216 226 225 221 217 203
203 211 195 166 157 155 154 158 191 300 348 356 332 319 317 295 294 9 19 351 340 339 325 310 324 326 314 322 334 330 341 349 5 17 3 4 36 142 182 173 156 167 191 192 180 188 215 234 245 252 253 265 294 299 299 317 317 299 309 322 194 189 214 233 219 211 197 189 203 212 196 185 195 200 194 192 210 306 201 196 226 228 200 205 209 206 205 197
212 223 217 194 188 178 165 166 204 268 341 335 302 304 320 317 310 321 357 3 351 343 332 327 349 337 316 318 309 303 329 348 8 17 359 346 17 105 162 148 104 121 167 183 180 199 216 230 254 259 264 281 304 312 303 297 303 300 294 299 290 232 229 237 238 227 207 209 217 201 191 194 206 213 221 223 213 228 229 209 233 232 197 195 200 196 190 188
216 223 229 226 218 202 189 186 206 222 237 289 306 324 327 325 320 312 333 341 329 324 327 323 338 341 333 340 312 281 316 354 12 23 19 350 3 55 122 115 98 115 143 174 176 215 221 217 239 257 273 290 311 334 328 301 305 301 285 287 299 305 275 240 233 227 225 239 236 196 193 202 209 214 228 215 189 182 229 211 208 209 197 193 198 198 188 183
223 223 228 231 226 218 219 222 225 226 223 255 299 318 306 299 305 308 316 320 305 294 294 298 318 339 339 333 311 289 343 7 9 22 43 29 347 31 77 62 63 76 70 184 183 198 213 210 224 251 269 278 298 333 317 289 323 306 285 289 298 307 308 264 235 228 229 238 226 207 208 209 208 210 199 178 178 176 174 187 187 196 208 206 201 201 196 188
230 227 230 233 231 231 235 235 234 235 230 240 273 297 293 292 314 311 292 284 291 283 277 291 311 329 326 304 284 288 323 316 309 7 45 70 337 357 57 54 41 44 36 29 138 163 196 223 252 271 276 278 294 327 274 278 315 314 306 311 306 298 302 299 268 237 230 232 216 209 218 213 205 201 186 179 185 193 196 190 191 202 216 217 209 206 205 199
238 236 235 237 237 238 242 241 238 237 234 242 260 269 280 303 336 319 276 252 254 258 255 279 301 309 338 311 284 291 308 293 273 279 279 193 195 237 219 87 50 34 18 3 4 134 198 240 280 294 288 283 280 290 312 316 322 336 349 340 318 309 303 293 287 246 232 234 220 214 228 217 197 194 191 191 198 203 202 209 218 218 212 204 203 207 209 208
Height
3147 3147 3146 3145 3145 3144 3144 3144 3144 3144 3144 3144 3144 3144 3144 3144 3144 3144 3144 3144 3144 3145 3145 3145 3145 3146 3146 3147 3147 3147 3148 3149 3150 3151 3151 3151 3152 3153 3153 3155 3156 3157 3157 3158 3159 3159 3160 3161 3162 3162 3162 3163 3163 3162 3162 3161 3161 3162 3162 3161 3161 3161 3162 3162 3162 3162 3159 3158 3158 3159 3158 3157 3157 3158 3159 3159 3158 3158 3158 3160 3161 3162 3164 3164 3165 3166 3165 3167
3146 3145 3145 3144 3143 3143 3143 3142 3142 3142 3142 3142 3142 3141 3141 3142 3142 3142 3142 3142 3143 3143 3144 3144 3144 3144 3145 3146 3146 3147 3148 3149 3149 3150 3150 3151 3151 3152 3153 3154 3155 3156 3157 3158 3158 3159 3160 3161 3161 3162 3162 3162 3162 3162 3162 3161 3161 3161 3161 3161 3161 3161 3162 3161 3161 3160 3159 3156 3156 3158 3158 3157 3156 3156 3157 3157 3157 3157 3156 3158 3160 3162 3163 3163 3163 3164 3165 3166
3144 3143 3143 3142 3142 3141 3141 3141 3140 3140 3140 3139 3139 3139 3139 3139 3139 3139 3140 3140 3141 3142 3142 3142 3143 3143 3144 3145 3146 3146 3147 3148 3148 3148 3149 3150 3151 3152 3153 3154 3155 3156 3157 3157 3158 3159 3159 3160 3161 3162 3162 3161 3161 3161 3161 3161 3161 3161 3161 3161 3160 3160 3160 3160 3159 3159 3158 3156 3154 3156 3156 3155 3155 3154 3155 3155 3156 3156 3156 3157 3158 3160 3161 3162 3163 3164 3164 3166
3142 3141 3141 3140 3140 3139 3139 3139 3138 3138 3137 3137 3137 3137 3137 3137 3137 3137 3138 3138 3139 3140 3140 3141 3141 3142 3143 3144 3145 3145 3146 3147 3147 3148 3149 3150 3150 3151 3152 3154 3155 3155 3156 3156 3157 3158 3159 3160 3161 3162 3161 3161 3160 3160 3160 3160 3160 3160 3160 3160 3159 3159 3159 3158 3158 3158 3157 3157 3155 3153 3153 3153 3153 3153 3152 3152 3153 3153 3155 3157 3158 3160 3161 3161 3162 3163 3164 3166
3141 3140 3139 3138 3138 3137 3137 3136 3136 3136 3135 3135 3135 3135 3135 3135 3135 3135 3136 3136 3137 3138 3139 3139 3140 3141 3142 3143 3144 3145 3145 3147 3147 3147 3148 3149 3150 3151 3152 3153 3154 3155 3156 3156 3157 3158 3159 3160 3161 3161 3161 3160 3160 3160 3159 3160 3160 3160 3160 3159 3158 3158 3158 3157 3156 3156 3156 3156 3154 3151 3151 3151 3151 3150 3150 3151 3151 3152 3154 3157 3159 3161 3161 3161 3162 3163 3164 3166
3139 3138 3137 3136 3136 3135 3134 3134 3134 3133 3133 3133 3133 3133 3133 3133 3133 3133 3133 3134 3135 3136 3137 3138 3138 3139 3141 3142 3143 3144 3145 3146 3146 3147 3148 3148 3149 3150 3151 3152 3153 3154 3155 3156 3157 3158 3159 3160 3160 3160 3160 3160 3160 3160 3159 3159 3159 3159 3159 3158 3157 3156 3156 3156 3156 3155 3154 3153 3151 3149 3149 3148 3148 3148 3149 3150 3151 3153 3155 3157 3159 3160 3162 3162 3163 3163 3164 3166
3138 3137 3136 3135 3134 3133 3132 3132 3131 3131 3131 3131 3131 3131 3131 3131 3130 3131 3131 3132 3133 3134 3135 3136 3137 3138 3139 3141 3142 3143 3144 3145 3145 3146 3147 3148 3149 3150 3151 3152 3153 3154 3155 3156 3157 3157 3159 3160 3160 3159 3159 3160 3161 3160 3160 3159 3158 3158 3158 3157 3156 3155 3155 3154 3154 3153 3153 3151 3149 3148 3147 3146 3144 3145 3146 3149 3151 3153 3154 3156 3158 3159 3160 3161 3163 3164 3165 3166
3136 3135 3134 3133 3132 3131 3131 3130 3129 3129 3129 3129 3129 3129 3129 3128 3128 3129 3129 3130 3131 3132 3133 3134 3135 3136 3138 3140 3141 3142 3143 3144 3145 3146 3147 3148 3148 3149 3150 3151 3152 3154 3155 3156 3157 3158 3158 3158 3158 3159 3159 3160 3161 3160 3160 3159 3159 3158 3157 3156 3156 3155 3154 3153 3152 3151 3150 3148 3146 3145 3144 3143 3142 3142 3144 3146 3150 3151 3153 3155 3156 3157 3158 3160 3162 3164 3166 3167
3135 3134 3133 3132 3131 3130 3129 3128 3127 3127 3127 3127 3126 3126 3126 3126 3126 3126 3127 3128 3129 3130 3131 3132 3133 3135 3136 3138 3140 3141 3141 3142 3144 3145 3146 3147 3148 3149 3150 3151 3152 3154 3155 3156 3156 3157 3158 3158 3158 3159 3160 3160 3160 3160 3160 3159 3158 3158 3157 3156 3155 3154 3153 3152 3151 3149 3147 3145 3144 3142 3141 3141 3140 3140 3142 3144 3147 3149 3151 3152 3153 3156 3157 3159 3161 3164 3166 3167
3133 3132 3131 3130 3129 3128 3127 3126 3125 3125 3125 3124 3124 3124 3124 3124 3124 3124 3125 3126 3126 3128 3129 3130 3131 3133 3135 3137 3138 3140 3140 3141 3143 3144 3145 3146 3147 3148 3149 3150 3152 3153 3154 3155 3156 3157 3158 3157 3158 3159 3160 3160 3160 3160 3159 3159 3158 3157 3156 3155 3154 3153 3152 3150 3149 3147 3145 3143 3142 3140 3139 3139 3139 3139 3140 3142 3145 3147 3149 3149 3152 3156 3157 3159 3160 3163 3165 3167
3132 3131 3129 3128 3127 3125 3124 3123 3123 3122 3122 3122 3122 3122 3122 3122 3122 3122 3123 3123 3124 3126 3127 3128 3129 3132 3133 3135 3137 3138 3139 3140 3141 3143 3144 3145 3147 3148 3149 3150 3151 3152 3154 3155 3156 3156 3157 3157 3157 3159 3159 3160 3159 3159 3159 3158 3157 3157 3156 3155 3154 3152 3150 3149 3147 3146 3143 3141 3140 3139 3138 3137 3137 3138 3139 3142 3144 3146 3148 3149 3152 3155 3157 3158 3160 3163 3165 3167
3130 3129 3128 3126 3125 3123 3122 3121 3120 3120 3120 3120 3120 3120 3120 3120 3120 3120 3121 3122 3123 3124 3125 3126 3128 3130 3131 3134 3136 3136 3136 3138 3140 3142 3143 3145 3146 3147 3148 3149 3151 3152 3153 3155 3156 3156 3157 3157 3157 3159 3159 3159 3159 3158 3158 3157 3157 3156 3155 3154 3153 3152 3149 3148 3146 3145 3142 3140 3139 3138 3137 3136 3136 3137 3138 3140 3143 3145 3147 3149 3152 3154 3155 3157 3160 3162 3164 3167
3128 3127 3126 3124 3122 3121 3119 3118 3118 3117 3117 3117 3117 3118 3118 3118 3118 3119 3119 3120 3121 3122 3123 3124 3126 3128 3130 3133 3134 3134 3134 3136 3139 3141 3142 3144 3145 3147 3148 3149 3150 3152 3153 3155 3156 3157 3158 3158 3157 3158 3158 3158 3158 3158 3156 3156 3155 3155 3154 3153 3152 3150 3149 3147 3145 3144 3142 3141 3139 3137 3137 3136 3135 3136 3137 3140 3142 3145 3147 3148 3150 3153 3154 3157 3160 3162 3164 3167
3127 3125 3124 3122 3120 3119 3117 3116 3116 3115 3115 3115 3115 3116 3116 3116 3116 3117 3118 3118 3119 3120 3121 3122 3124 3126 3129 3131 3132 3133 3133 3133 3137 3140 3141 3143 3144 3146 3147 3148 3150 3151 3152 3154 3155 3157 3157 3157 3157 3158 3157 3157 3158 3156 3155 3155 3155 3155 3154 3153 3151 3149 3148 3146 3145 3144 3142 3141 3139 3137 3136 3136 3135 3136 3137 3139 3142 3145 3147 3148 3150 3153 3154 3157 3160 3163 3165 3167
3125 3124 3122 3120 3119 3117 3115 3114 3113 3113 3113 3113 3113 3113 3113 3114 3114 3115 3116 3117 3118 3119 3119 3121 3123 3125 3128 3130 3130 3132 3132 3132 3136 3140 3141 3142 3143 3145 3146 3148 3150 3151 3152 3153 3155 3156 3156 3156 3156 3157 3156 3157 3157 3155 3155 3155 3155 3154 3153 3152 3151 3150 3148 3147 3145 3144 3143 3141 3139 3137 3136 3135 3135 3135 3136 3138 3142 3144 3146 3148 3150 3152 3154 3157 3160 3163 3165 3167
3124 3122 3120 3119 3117 3115 3114 3112 3111 3111 3111 3110 3111 3111 3112 3112 3113 3113 3114 3115 3116 3117 3118 3120 3122 3124 3126 3128 3129 3130 3131 3132 3136 3138 3140 3141 3142 3144 3145 3147 3149 3150 3152 3153 3154 3156 3155 3155 3155 3156 3156 3156 3156 3155 3156 3155 3154 3154 3152 3151 3150 3149 3149 3147 3145 3145 3143 3141 3139 3137 3136 3135 3134 3135 3136 3138 3141 3143 3145 3147 3149 3151 3153 3156 3159 3162 3165 3167
3122 3121 3119 3117 3116 3114 3112 3111 3110 3109 3109 3109 3109 3109 3110 3110 3111 3112 3113 3114 3115 3116 3118 3119 3121 3123 3125 3127 3128 3130 3131 3132 3134 3137 3139 3140 3142 3143 3144 3146 3148 3150 3151 3153 3154 3155 3155 3154 3154 3155 3155 3155 3155 3156 3156 3154 3153 3153 3152 3150 3150 3149 3149 3147 3146 3145 3143 3142 3140 3138 3136 3136 3135 3135 3136 3138 3141 3142 3144 3146 3148 3151 3153 3155 3159 3162 3165 3167
3121 3119 3118 3116 3114 3113 3111 3110 3108 3108 3107 3107 3107 3107 3108 3109 3109 3110 3111 3113 3113 3115 3116 3118 3120 3122 3123 3126 3127 3129 3130 3131 3133 3136 3137 3139 3141 3142 3144 3146 3148 3149 3150 3151 3153 3154 3154 3154 3154 3154 3154 3154 3154 3155 3155 3153 3152 3152 3151 3150 3150 3149 3149 3147 3146 3145 3144 3142 3140 3139 3137 3136 3136 3135 3136 3140 3142 3143 3145 3147 3149 3151 3152 3156 3160 3163 3165 3167
3120 3118 3116 3115 3113 3111 3110 3108 3107 3106 3106 3106 3106 3106 3106 3107 3108 3109 3109 3110 3112 3114 3115 3117 3119 3121 3122 3124 3125 3127 3129 3130 3132 3134 3136 3138 3140 3142 3143 3146 3147 3148 3149 3150 3151 3153 3154 3153 3153 3152 3151 3151 3151 3152 3152 3151 3151 3151 3150 3150 3149 3150 3149 3148 3147 3146 3144 3143 3141 3140 3139 3137 3136 3136 3138 3142 3144 3144 3147 3149 3150 3152 3154 3157 3161 3163 3166 3167
3119 3117 3115 3114 3112 3110 3108 3107 3106 3105 3105 3104 3104 3105 3105 3106 3106 3107 3108 3109 3111 3113 3114 3115 3118 3121 3121 3122 3123 3124 3127 3129 3131 3133 3135 3137 3140 3141 3142 3145 3146 3147 3148 3149 3151 3152 3152 3151 3150 3148 3148 3149 3150 3150 3150 3150 3150 3150 3149 3149 3149 3149 3149 3147 3147 3146 3145 3143 3141 3141 3140 3140 3139 3139 3141 3144 3146 3146 3147 3150 3152 3154 3156 3159 3162 3164 3166 3168
3118 3116 3114 3113 3111 3109 3107 3106 3105 3104 3103 3103 3103 3104 3104 3105 3105 3107 3108 3110 3111 3112 3113 3115 3118 3120 3120 3121 3122 3123 3125 3128 3130 3133 3134 3136 3139 3140 3141 3143 3144 3145 3147 3149 3150 3151 3151 3149 3146 3146 3147 3148 3149 3150 3150 3150 3150 3150 3149 3149 3149 3149 3148 3147 3146 3146 3144 3143 3141 3141 3141 3141 3141 3141 3142 3144 3147 3148 3149 3151 3152 3154 3157 3159 3162 3165 3166 3168
3117 3115 3113 3112 3110 3108 3106 3105 3104 3103 3102 3102 3102 3103 3103 3104 3105 3107 3109 3110 3111 3111 3113 3115 3117 3119 3120 3120 3121 3122 3123 3126 3129 3132 3133 3135 3137 3138 3140 3141 3142 3144 3146 3148 3149 3149 3149 3146 3144 3145 3147 3148 3148 3148 3149 3149 3149 3149 3149 3149 3148 3148 3147 3146 3145 3145 3144 3143 3142 3141 3141 3142 3142 3143 3144 3146 3148 3149 3150 3151 3153 3155 3157 3159 3162 3165 3166 3168
3116 3114 3112 3111 3109 3107 3105 3104 3103 3102 3102 3101 3101 3102 3103 3104 3105 3107 3108 3109 3110 3111 3112 3115 3117 3119 3120 3120 3122 3122 3122 3125 3128 3130 3132 3134 3136 3138 3139 3140 3142 3144 3146 3146 3147 3147 3146 3143 3143 3144 3146 3146 3146 3146 3147 3148 3147 3148 3149 3148 3148 3147 3146 3145 3144 3145 3144 3143 3142 3141 3141 3142 3143 3144 3145 3147 3148 3150 3151 3152 3154 3155 3156 3158 3161 3163 3166 3168
3115 3113 3111 3110 3108 3106 3105 3103 3102 3101 3101 3101 3101 3101 3102 3103 3104 3106 3108 3109 3109 3110 3112 3115 3117 3119 3120 3120 3122 3122 3123 3125 3128 3130 3131 3133 3135 3137 3138 3140 3142 3143 3144 3145 3146 3146 3143 3142 3143 3144 3145 3145 3145 3146 3147 3147 3146 3147 3147 3147 3147 3146 3145 3144 3144 3144 3144 3143 3142 3142 3142 3142 3143 3144 3145 3147 3149 3150 3151 3152 3154 3154 3155 3158 3160 3162 3165 3167
3114 3112 3111 3109 3107 3106 3104 3103 3102 3101 3100 3100 3100 3101 3102 3102 3104 3106 3108 3109 3109 3110 3111 3114 3116 3118 3119 3120 3121 3123 3124 3126 3128 3129 3131 3132 3134 3136 3138 3140 3141 3142 3143 3144 3145 3144 3142 3141 3143 3144 3144 3144 3145 3145 3145 3145 3145 3145 3146 3146 3146 3146 3146 3146 3145 3144 3144 3143 3142 3142 3143 3142 3143 3144 3145 3147 3149 3150 3152 3152 3153 3154 3155 3157 3159 3160 3163 3166
3113 3112 3110 3108 3107 3105 3104 3103 3102 3101 3100 3100 3101 3101 3102 3103 3104 3106 3108 3109 3109 3109 3111 3113 3115 3117 3118 3119 3121 3123 3125 3126 3127 3129 3131 3133 3134 3136 3138 3139 3140 3141 3142 3143 3144 3143 3140 3140 3142 3142 3142 3143 3144 3144 3144 3145 3145 3144 3144 3144 3144 3144 3145 3145 3144 3143 3143 3142 3141 3141 3142 3142 3143 3144 3144 3146 3149 3151 3152 3152 3152 3153 3154 3155 3157 3159 3161 3165
3113 3111 3109 3108 3106 3105 3104 3103 3102 3101 3100 3101 3102 3102 3103 3103 3105 3106 3108 3109 3109 3109 3111 3112 3114 3116 3118 3120 3121 3122 3124 3125 3126 3129 3130 3132 3134 3136 3137 3138 3139 3140 3141 3144 3143 3140 3140 3140 3141 3141 3141 3142 3142 3143 3144 3144 3144 3144 3143 3143 3143 3142 3143 3143 3143 3143 3142 3141 3141 3141 3141 3142 3142 3143 3144 3145 3147 3150 3151 3150 3150 3151 3152 3154 3156 3158 3160 3163
3112 3111 3109 3108 3106 3105 3104 3103 3103 3102 3101 3102 3102 3103 3104 3105 3106 3107 3107 3109 3109 3109 3111 3112 3114 3115 3117 3120 3121 3122 3123 3124 3125 3127 3129 3132 3134 3135 3136 3137 3138 3139 3141 3142 3140 3138 3139 3140 3140 3141 3141 3141 3141 3141 3142 3143 3143 3143 3143 3143 3142 3142 3142 3142 3142 3142 3142 3142 3141 3140 3141 3142 3140 3141 3143 3144 3144 3146 3146 3147 3148 3149 3150 3152 3155 3157 3158 3161
3112 3110 3109 3108 3106 3105 3104 3103 3103 3103 3102 3102 3103 3104 3104 3106 3107 3107 3107 3109 3109 3109 3111 3112 3114 3115 3116 3118 3120 3122 3123 3124 3125 3126 3128 3131 3133 3134 3135 3136 3138 3139 3140 3141 3138 3137 3138 3138 3139 3140 3140 3139 3140 3141 3142 3142 3142 3142 3142 3142 3142 3142 3142 3142 3142 3142 3142 3142 3139 3138 3139 3140 3138 3138 3140 3142 3142 3141 3141 3144 3145 3147 3149 3151 3153 3155 3157 3160
3112 3110 3109 3107 3106 3105 3104 3103 3103 3103 3104 3104 3104 3105 3105 3107 3108 3108 3109 3110 3109 3110 3111 3112 3113 3114 3115 3117 3119 3120 3122 3123 3125 3127 3128 3130 3132 3134 3135 3136 3138 3138 3138 3139 3137 3136 3136 3136 3137 3138 3138 3138 3139 3140 3141 3141 3142 3141 3141 3141 3142 3142 3142 3142 3142 3143 3143 3142 3138 3136 3137 3138 3137 3135 3135 3136 3135 3135 3137 3140 3143 3145 3148 3150 3152 3154 3156 3158
3112 3110 3109 3108 3106 3105 3104 3104 3104 3104 3105 3105 3105 3106 3107 3108 3109 3109 3110 3110 3109 3110 3111 3112 3113 3114 3114 3115 3117 3119 3120 3122 3125 3126 3127 3129 3131 3133 3134 3135 3136 3137 3137 3137 3136 3136 3134 3134 3135 3135 3136 3137 3137 3138 3139 3140 3141 3141 3140 3140 3141 3142 3143 3143 3143 3143 3144 3141 3136 3135 3135 3137 3136 3132 3131 3131 3132 3133 3135 3137 3139 3142 3145 3147 3150 3152 3155 3157
3112 3110 3109 3108 3107 3106 3105 3105 3105 3105 3106 3106 3107 3108 3108 3109 3110 3109 3110 3110 3109 3110 3110 3111 3112 3113 3114 3115 3117 3119 3120 3122 3124 3124 3126 3128 3130 3131 3132 3133 3134 3135 3135 3135 3135 3135 3134 3132 3133 3133 3134 3135 3136 3136 3136 3137 3139 3139 3139 3139 3141 3143 3144 3144 3143 3143 3142 3138 3135 3135 3135 3136 3134 3129 3129 3129 3130 3132 3134 3135 3137 3140 3142 3145 3148 3151 3154 3156
3112 3110 3110 3109 3108 3107 3107 3106 3107 3107 3107 3108 3109 3109 3110 3111 3111 3110 3111 3111 3110 3110 3110 3111 3112 3112 3114 3115 3117 3118 3120 3122 3123 3124 3125 3127 3129 3130 3130 3131 3133 3133 3134 3134 3135 3135 3133 3132 3132 3132 3132 3133 3134 3134 3135 3136 3136 3137 3138 3139 3140 3142 3145 3145 3143 3142 3140 3136 3135 3135 3135 3134 3131 3127 3128 3127 3127 3129 3131 3134 3136 3138 3141 3144 3146 3149 3153 3155
3112 3111 3110 3109 3109 3109 3108 3108 3108 3108 3109 3110 3111 3111 3112 3112 3111 3110 3111 3112 3112 3111 3111 3111 3112 3113 3114 3115 3116 3117 3119 3121 3122 3124 3126 3127 3128 3128 3129 3130 3131 3132 3133 3134 3134 3134 3133 3131 3129 3129 3130 3131 3132 3132 3133 3134 3135 3136 3137 3138 3138 3138 3141 3141 3140 3139 3138 3136 3135 3135 3136 3134 3130 3127 3126 3125 3125 3127 3130 3133 3136 3138 3141 3144 3146 3149 3151 3154
3113 3112 3111 3110 3110 3110 3109 3109 3109 3110 3110 3111 3112 3112 3112 3112 3111 3110 3110 3112 3113 3112 3112 3112 3112 3113 3114 3115 3116 3117 3119 3121 3122 3124 3125 3126 3126 3126 3127 3128 3129 3130 3132 3132 3131 3132 3132 3128 3126 3127 3129 3130 3131 3131 3132 3133 3134 3135 3136 3137 3136 3135 3136 3136 3137 3137 3136 3136 3136 3136 3136 3134 3130 3127 3124 3123 3124 3125 3128 3132 3135 3138 3141 3144 3146 3148 3150 3152
3113 3112 3111 3111 3111 3110 3110 3110 3110 3111 3112 3112 3112 3113 3112 3112 3112 3111 3111 3112 3114 3114 3114 3114 3114 3114 3115 3116 3116 3117 3119 3120 3122 3123 3124 3124 3124 3124 3125 3125 3126 3128 3129 3129 3129 3130 3129 3126 3125 3127 3128 3128 3129 3130 3131 3132 3133 3134 3134 3134 3135 3134 3134 3135 3135 3136 3136 3136 3137 3136 3136 3132 3128 3126 3124 3123 3124 3125 3128 3131 3134 3137 3140 3143 3144 3146 3148 3150
3113 3113 3112 3112 3111 3111 3111 3111 3111 3112 3112 3112 3113 3113 3113 3112 3112 3112 3111 3112 3114 3115 3115 3116 3115 3114 3115 3116 3116 3117 3118 3120 3121 3122 3122 3123 3122 3121 3122 3123 3124 3125 3126 3127 3128 3128 3127 3124 3123 3126 3126 3126 3127 3128 3130 3131 3131 3132 3132 3132 3133 3134 3134 3134 3134 3135 3136 3137 3137 3136 3135 3132 3129 3127 3125 3124 3125 3127 3128 3130 3133 3136 3139 3141 3143 3145 3147 3149
3113 3113 3113 3112 3111 3111 3111 3111 3112 3112 3112 3113 3113 3113 3113 3112 3112 3112 3111 3112 3113 3114 3115 3115 3115 3115 3116 3116 3116 3117 3117 3118 3119 3119 3119 3120 3119 3118 3120 3121 3121 3122 3124 3126 3126 3127 3127 3124 3121 3123 3124 3125 3125 3125 3127 3130 3131 3131 3131 3132 3132 3133 3133 3133 3133 3135 3136 3138 3138 3135 3134 3133 3131 3129 3127 3126 3127 3128 3129 3131 3132 3134 3137 3139 3142 3144 3146 3149
3112 3113 3113 3112 3112 3111 3111 3111 3112 3112 3113 3114 3114 3113 3112 3112 3111 3111 3111 3112 3113 3113 3114 3115 3115 3116 3116 3116 3117 3117 3116 3115 3115 3116 3117 3118 3117 3116 3117 3118 3119 3120 3122 3124 3124 3125 3126 3125 3121 3120 3123 3124 3123 3122 3124 3127 3129 3130 3131 3131 3131 3132 3132 3132 3132 3133 3134 3137 3139 3136 3134 3134 3132 3131 3129 3128 3128 3129 3130 3131 3132 3134 3136 3138 3141 3144 3146 3148
3112 3113 3113 3112 3111 3111 3111 3112 3112 3112 3113 3114 3114 3113 3113 3112 3111 3110 3111 3112 3113 3113 3113 3114 3114 3115 3114 3114 3114 3114 3113 3113 3114 3115 3115 3115 3115 3114 3114 3116 3117 3118 3120 3122 3122 3123 3125 3125 3122 3119 3121 3122 3122 3122 3124 3125 3126 3127 3128 3129 3129 3130 3131 3131 3132 3132 3132 3134 3137 3137 3136 3135 3133 3132 3131 3130 3129 3130 3131 3132 3133 3135 3137 3139 3141 3143 3145 3147
3112 3113 3112 3111 3110 3111 3111 3112 3112 3113 3114 3114 3114 3114 3114 3113 3111 3110 3110 3112 3113 3113 3113 3113 3114 3114 3114 3112 3112 3112 3111 3112 3113 3113 3113 3113 3113 3112 3113 3113 3114 3116 3119 3120 3121 3121 3122 3123 3122 3119 3120 3122 3121 3121 3123 3125 3125 3125 3126 3126 3127 3128 3129 3130 3131 3132 3131 3132 3133 3135 3135 3134 3132 3132 3131 3131 3130 3130 3131 3132 3133 3135 3137 3139 3141 3143 3145 3146
3112 3112 3112 3111 3110 3110 3111 3112 3113 3113 3113 3114 3114 3114 3114 3114 3112 3111 3111 3113 3113 3113 3113 3113 3114 3114 3113 3112 3112 3112 3111 3110 3111 3113 3113 3112 3111 3111 3112 3112 3113 3115 3117 3118 3118 3119 3120 3121 3121 3119 3120 3122 3121 3120 3122 3123 3124 3124 3125 3125 3126 3127 3127 3127 3129 3130 3131 3132 3132 3133 3134 3133 3132 3131 3131 3131 3130 3130 3130 3132 3133 3134 3136 3139 3141 3143 3145 3147
3112 3111 3111 3110 3110 3110 3112 3113 3113 3113 3113 3113 3114 3114 3114 3114 3113 3112 3112 3112 3112 3113 3113 3113 3113 3112 3112 3112 3111 3111 3110 3110 3111 3113 3112 3111 3110 3110 3111 3112 3112 3114 3115 3116 3116 3117 3119 3120 3120 3120 3120 3121 3120 3119 3120 3121 3122 3124 3124 3124 3124 3125 3125 3126 3127 3128 3130 3131 3131 3132 3133 3132 3131 3131 3130 3130 3130 3129 3130 3131 3132 3134 3135 3137 3140 3142 3144 3146
3111 3111 3110 3110 3110 3111 3112 3113 3114 3114 3114 3114 3114 3114 3113 3113 3113 3112 3112 3111 3111 3112 3112 3112 3112 3111 3111 3111 3111 3110 3110 3110 3111 3111 3110 3110 3109 3109 3110 3111 3111 3112 3113 3114 3114 3116 3118 3118 3119 3120 3120 3120 3119 3118 3118 3119 3120 3122 3123 3122 3122 3124 3125 3125 3126 3127 3129 3130 3130 3131 3132 3131 3131 3131 3130 3130 3129 3129 3130 3131 3132 3133 3134 3135 3137 3140 3142 3145
3110 3109 3109 3109 3109 3110 3111 3112 3113 3113 3113 3113 3113 3113 3112 3111 3112 3112 3111 3111 3111 3111 3111 3111 3111 3111 3110 3110 3110 3109 3109 3110 3110 3109 3108 3108 3108 3107 3107 3109 3110 3111 3112 3113 3114 3115 3116 3117 3118 3119 3119 3120 3120 3119 3119 3119 3119 3120 3122 3122 3122 3123 3124 3124 3125 3126 3127 3128 3129 3129 3129 3130 3130 3130 3130 3130 3130 3130 3130 3131 3132 3132 3133 3133 3135 3137 3140 3143
3109 3108 3108 3108 3108 3109 3110 3111 3112 3112 3112 3112 3111 3112 3112 3111 3111 3110 3110 3110 3111 3111 3111 3111 3111 3111 3110 3109 3109 3109 3109 3109 3109 3108 3107 3106 3106 3105 3105 3107 3109 3110 3111 3112 3113 3115 3116 3116 3117 3117 3117 3118 3119 3120 3120 3119 3119 3120 3121 3122 3123 3123 3123 3123 3123 3123 3124 3126 3126 3126 3127 3128 3128 3129 3129 3129 3130 3130 3129 3130 3131 3131 3132 3133 3134 3136 3138 3140
3108 3108 3108 3108 3108 3109 3109 3110 3110 3111 3111 3112 3111 3111 3111 3111 3111 3109 3108 3109 3110 3111 3110 3110 3111 3111 3110 3109 3109 3108 3108 3107 3107 3107 3106 3106 3106 3105 3105 3106 3108 3109 3110 3111 3112 3114 3115 3115 3116 3116 3116 3117 3118 3119 3119 3119 3119 3119 3119 3121 3123 3124 3124 3123 3121 3121 3123 3124 3123 3123 3125 3126 3126 3127 3127 3128 3128 3128 3128 3129 3129 3130 3131 3132 3133 3135 3137 3139
3108 3108 3109 3109 3109 3109 3109 3110 3110 3111 3112 3112 3112 3111 3111 3111 3112 3111 3109 3109 3109 3110 3110 3110 3110 3110 3109 3109 3108 3107 3107 3106 3106 3106 3107 3106 3106 3105 3105 3106 3107 3108 3110 3112 3112 3113 3113 3114 3115 3115 3116 3117 3118 3118 3118 3118 3119 3119 3118 3119 3122 3124 3124 3122 3120 3120 3121 3120 3120 3121 3122 3123 3123 3124 3125 3125 3126 3127 3127 3128 3128 3128 3130 3131 3133 3135 3137 3139
3107 3108 3108 3108 3108 3109 3109 3110 3110 3111 3111 3112 3112 3111 3111 3111 3112 3112 3111 3110 3109 3109 3109 3108 3108 3108 3108 3108 3107 3106 3106 3106 3106 3107 3107 3107 3107 3105 3106 3107 3107 3107 3109 3111 3111 3112 3113 3114 3115 3115 3115 3116 3117 3117 3117 3117 3117 3117 3117 3117 3119 3121 3121 3120 3119 3119 3119 3118 3118 3119 3120 3120 3121 3122 3123 3124 3125 3126 3126 3126 3127 3127 3129 3130 3132 3135 3137 3138
3106 3106 3107 3107 3108 3109 3109 3110 3110 3110 3111 3111 3110 3110 3110 3110 3110 3110 3111 3111 3110 3108 3107 3106 3107 3107 3108 3108 3107 3106 3107 3107 3108 3108 3108 3109 3109 3107 3107 3108 3108 3108 3109 3110 3110 3111 3112 3113 3114 3114 3113 3114 3116 3116 3116 3116 3116 3116 3115 3115 3116 3118 3118 3119 3119 3118 3117 3117 3118 3119 3119 3120 3121 3122 3123 3124 3124 3125 3126 3126 3127 3128 3129 3130 3131 3133 3135 3137
3104 3104 3105 3106 3107 3108 3108 3109 3109 3109 3109 3109 3108 3108 3108 3108 3108 3108 3109 3110 3109 3106 3106 3106 3106 3107 3107 3107 3106 3106 3107 3108 3109 3109 3109 3109 3109 3109 3109 3109 3110 3110 3109 3110 3110 3111 3112 3112 3113 3114 3113 3113 3114 3115 3115 3115 3115 3115 3114 3114 3114 3115 3116 3117 3117 3116 3115 3116 3118 3119 3117 3117 3119 3121 3122 3124 3124 3124 3125 3126 3127 3128 3129 3130 3131 3132 3134 3136
3102 3102 3103 3104 3105 3106 3106 3107 3107 3107 3107 3107 3107 3107 3107 3107 3107 3106 3106 3107 3106 3105 3105 3105 3105 3105 3106 3105 3105 3105 3105 3106 3107 3108 3108 3109 3109 3109 3108 3109 3110 3110 3110 3111 3111 3111 3111 3112 3113 3113 3112 3112 3113 3114 3114 3114 3114 3115 3115 3113 3112 3112 3113 3114 3113 3113 3114 3114 3116 3115 3113 3114 3117 3118 3120 3122 3123 3124 3125 3126 3127 3127 3128 3129 3130 3132 3133 3135